www.pogodaiklimat.ru

Погода и климат >> Архив погоды >> Алжир >> Газауэт


ПОГОДА в Газауэте

  • Прогноз погоды в Газауэте
  • Монитор погоды в Газауэте

АРХИВ ПОГОДЫ в Газауэте

Время (UTC), дата Ветер
(напр.,м/с)
 
Видим.   Явления Облачность Т
(С)
Тd
(С)
f
(%)
Тe
(С)
Тes
(С)
Комфортность P
(гПа)
Po
(гПа)
Тmin
(С)
Tmax
(С)
R
(мм)
R24
(мм)
S
(см)
06 12.09 ЮВ 2 15 км 4/3 800 м
[Cu med, cong Ci sp]
+16.8 +13.7 82 +17 +17 1019.3 1018.7 +16.7 0.7
09 12.09 штиль 0 20 км 4/3 800 м
[Cu med, cong Ci sp]
+20.7 +16.2 75 +24 +31 комфорт 1021.2 1020.6
12 12.09 СЗ 3 20 км 5/3 800 м
[Cu med, cong Ci sp]
+22.7 +16.5 68 +27 +36 душно 1020.3 1019.7
15 12.09 С 3 20 км 9/3 800 м
[Cu med, cong Ac trans Ci sp]
+22.8 +17.8 73 +28 +31 душно 1020.0 1019.4
18 12.09 СВ 2 20 км 8/4 800 м
[Cu med, cong Ac trans Ci sp]
+22.4 +17.6 74 +27 +27 душно 1019.6 1019.0 +23.3
06 13.09 В 2 15 км 5/4 800 м
[Cu med, cong Ac trans]
+18.1 +15.8 86 +19 +19 1018.3 1017.7 +18.1
09 13.09 штиль 0 20 км 9/3 800 м
[Cu med, cong Ac trans Ci sp]
+23.0 +19.2 79 +29 +33 очень
душно
1018.3 1017.7
12 13.09 СВ 2 15 км 8/4 800 м
[Cu med, cong Ac trans]
+23.6 +19.5 78 +29 +35 душно 1018.2 1017.6
15 13.09 СВ 5 15 км 8/4 800 м
[Cu med, cong Ac trans]
+24.4 +21.2 82 +31 +32 очень
душно
1016.0 1015.4
18 13.09 СВ 2 15 км 4/3 800 м
[Cu med, cong Ac trans]
+24.7 +21.5 82 +31 +31 очень
душно
1015.8 1015.2 +25.4
06 14.09 В 2 10 км 6/4 600 м
[Cb calv Ac cuf]
+21.7 +19.7 88 +27 +27 душно 1016.7 1016.1 +21.7
09 14.09 штиль 0 15 км 1/0
[Ac trans]
+25.2 +22.2 83 +33 +42 очень
душно
1017.2 1016.6
12 14.09 СЗ 3 20 км 3/3 600 м
[Cu Sc As op Cs]
+25.3 +22.9 87 +34 +43 очень
душно
1016.4 1015.8
15 14.09 штиль 0 10 км 8/4 300 м
[Cu Sc As op Cs]
+25.4 +23.8 91 +35 +37 очень
душно
1015.1 1014.5
18 14.09 С 1 8000 м 9/4 300 м
[Cu Sc As op Cs]
+24.7 +23.4 92 +33 +33 очень
душно
1016.1 1015.5 +25.8
06 15.09 штиль 0 10 км 9/5 600 м
[Cb calv Ac cuf]
+22.8 +21.4 92 +30 +30 очень
душно
1016.5 1015.9 +22.8
09 15.09 штиль 0 10 км 9/5 600 м
[Cb calv Ac cuf]
+24.2 +22.2 89 +31 +34 очень
душно
1017.9 1017.3
12 15.09 СЗ 3 15 км 3/3 800 м
[Cu med, cong]
+25.3 +23.1 88 +34 +44 очень
душно
1017.7 1017.1
15 15.09 С 2 15 км 5/3 300 м
[Cu med, cong]
+25.8 +23.7 88 +35 +40 очень
душно
1017.0 1016.4
18 15.09 штиль 0 15 км 1/1 300 м
[Frnb As trans]
+25.6 +23.2 87 +34 +34 очень
душно
1017.0 1016.4 +26.4
06 16.09 штиль 0 8000 м 10/6 300 м
[Cu med, cong Ac trans]
+24.1 +22.3 90 +31 +31 очень
душно
1018.0 1017.4 +22.9
09 16.09 штиль 0 8000 м 10/8 300 м
[Cu med, cong Ac trans]
+24.3 +22.8 91 +32 +33 очень
душно
1019.8 1019.2
12 16.09 С 3 10 км 3/3 800 м
[Cu med, cong]
+25.4 +23.3 88 +34 +44 очень
душно
1018.9 1018.3
15 16.09 С 2 10 км 4/4 800 м
[Cu med, cong]
+25.9 +23.7 88 +35 +40 очень
душно
1017.6 1017.0
18 16.09 В 1 10 км 3/3 800 м
[Cu med, cong]
+25.1 +23.0 88 +33 +33 очень
душно
1017.2 1016.6 +26.2
06 17.09 штиль 0 10 км 4/3 800 м
[Cu med, cong Ac trans]
+23.0 +21.2 90 +31 +31 очень
душно
1015.9 1015.3 +22.3
09 17.09 СЗ 2 8000 м 10/8 300 м
[Cu med, cong Ac trans]
+23.9 +21.9 89 +31 +31 очень
душно
1016.5 1015.9
12 17.09 С 2 8000 м 10/8 300 м
[Cu med, cong Ac trans]
+24.9 +22.5 87 +33 +34 очень
душно
1015.3 1014.7
15 17.09 С 2 10 км 5/3 800 м
[Cu med, cong Ac trans]
+24.9 +22.8 88 +33 +38 очень
душно
1013.7 1013.1
18 17.09 С 2 10 км 6/4 800 м
[Cu med, cong Ac trans]
+24.6 +22.9 90 +33 +33 очень
душно
1014.1 1013.5 +25.1
06 18.09 Ю 2 8000 м 9/6 300 м
[Cu Sc As op Cs]
+23.4 +22.0 92 +32 +32 очень
душно
1015.1 1014.5 +23.4
09 18.09 СЗ 2 8000 м 8/5 300 м
[Cu med, cong Ac trans]
+24.8 +22.5 87 +32 +35 очень
душно
1016.2 1015.6
12 18.09 СЗ 2 8000 м 10/8 300 м
[Cu med, cong Ac trans]
+25.0 +23.4 91 +34 +35 очень
душно
1016.4 1015.8
15 18.09 СЗ 2 10 км 8/4 300 м
[Cu Sc As op Cs]
+24.9 +23.3 91 +33 +36 очень
душно
1015.4 1014.8
18 18.09 С 1 10 км 9/4 300 м
[Cu Sc As op Cs]
+24.6 +22.9 90 +33 +33 очень
душно
1015.6 1015.0 +25.7

 

Местоположение метеостанции Газауэт (Алжир): широта 35.10 долгота -1.87 высота над уровнем моря 5 м.

В архиве по умолчанию представлена погода в Газауэте за последнюю неделю. Архивные данные за месяц целиком и за предыдущие месяцы, начиная с января 2011 года, Вы можете получить, выбрав интересующий диапазон дат из раскрывающегося списка и нажав кнопку "Ввод!".


*Определитесь, кто Вы:
робот инопланетянин человек

Внимание! Время в таблицах - всемирное. Для получения местного времени необходимо прибавить поправку, которая равна 1 ч.

Смотрите также архив погоды в соседних городах и на ближайших метеорологических станциях:

Погода в Багнии (Алжир) (32 км)
Погода в Уджде (Марокко) (36 км)
Погода в Аэропорту Messali El Hadj (Алжир) (37 км)
Погода в Бени-Сафе (Алжир) (52 км)
Погода в Мелилье (Испания) (100 км)
Погода в Аль-Аруи (Марокко) (106 км)
Погода в Сиди-Бель-Аббесе (Алжир) (114 км)
Погода в Оране (Алжир) (129 км)
Погода в Оран аэропорту (Алжир) (129 км)
Погода в Оран-Тафрауи (Алжир) (130 км)

Пояснения к столбцам:

Ветер - указаны скорость ветра в м/с - средняя за 10 мин, порывы в срок и между сроками (в фигурных скобках) и направление, откуда дует ветер: С - северный, СВ - северо-восточный, В - восточный, ЮВ - юго-восточный, Ю - южный, ЮЗ - юго-западный, З - западный, СЗ - северо-западный.
Видимость - горизонтальная дальность видимости в метрах или километрах. При видимости от 1 до 10 км при отсутствии осадков обычно наблюдается дымка, при ухудшении видимости до 1 км и менее - туман. В сухую погоду видимость может ухудшаться дымом, пылью или мглою.
Явления - указаны атмосферные явления, наблюдавшиеся в срок или в последний час перед сроком; фигурными скобками обозначены явления, наблюдавшиеся между сроками (за 1-3 часа до срока); квадратными скобками обозначены град или гололедные отложения с указанием их диаметра в мм.
Облачность - указаны через наклонную черту общая и нижняя облачность в баллах и высота нижней границы облаков в метрах; квадратными скобками обозначены формы облаков: Ci - перистые, Cs - перисто-слоистые, Cc - перисто-кучевые, Ac - высококучевые, As - высокослоистые, Sc - слоисто-кучевые, Ns - слоисто-дождевые, Cu - кучевые, Cb - кучево-дождевые. Подробнее классификацию облаков см. в Атласе облаков (PDF).
T - Температура воздуха - температура, измеренная на высоте 2 м над землей.
Td - Температура точки росы - температура, при понижении до которой содержащийся в воздухе водяной пар достигнет насыщения.
f - Относительная влажность воздуха - влажноcть воздуха, измеренная на высоте 2 м над землей.
Te - Эффективная температура - температура, которую ощущает одетый по сезону человек в тени. Характеристика душности погоды. При расчете учитывается влияние влажности воздуха и скорости ветра на теплоощущения человека.
Tes - Эффективная температура на солнце - температура, которую ощущает человек, с поправкой на солнечный нагрев. Характеристика знойности погоды. Зависит от высоты солнца над горизонтом, облачности и скорости ветра. Ночью, в пасмурную погоду, а также при ветре 12 м/с и более поправка равна нулю.
P - Атмосферное давление - приведенное к уровню моря атмосферное давление.
Po - Атмосферное давление - измеренное на уровне метеостанции атмосферное давление.
Tmin - Минимальная температура - минимум температуры воздуха на высоте 2 м над землей.
Tmax - Максимальная температура - максимум температуры воздуха на высоте 2 м над землей.
R - Количество осадков - Количество выпавших осадков за период времени, мм. При наведении курсора мыши на число - период времени, за который выпало указанное количество осадков.
R24 - Количество осадков - Количество выпавших осадков за 24 часа, мм.
S - Снежный покров - Высота снежного покрова, см. При наведении курсора мыши на число - состояние снежного покрова и степень покрытия местности в баллах.